Location: Bagnolo San Vito
(45.0833°N, 10.8833°E)
Time: 00:07:57
(UTC+00:00)

Cosmos 2360 Rocket - Pass Details

Date: 03 March 2021
Orbit: 832 x 846 km, 71.0° (Epoch: 17 April)

Event Time Altitude Azimuth Distance (km) Brightness Sun altitude
Rises 18:36:39 0° 206° (SSW) 3,374 5.6 -16.7°
Reaches altitude 10° 18:39:04 10° 207° (SSW) 2,446 4.8 -17.1°
Maximum altitude 18:44:42 84° 295° (WNW) 852 2.2 -18.1°
Drops below altitude 10° 18:50:23 10° 25° (NNE) 2,471 4.5 -19.0°
Sets 18:52:51 0° 26° (NNE) 3,412 5.2 -19.5°
